Location: Arpaise
(41.0333°N, 14.7333°E)
Time: 07:39:06
(UTC+00:00)

Cosmos 158 Rocket - Pass Details

Date: 05 July 2020
Orbit: 698 x 794 km, 74.0° (Epoch: 05 August)

Event Time Altitude Azimuth Distance (km) Brightness Sun altitude
Exits shadow 21:13:11 42° 109° (ESE) 996 4.2 -21.1°
Maximum altitude 21:13:21 42° 103° (ESE) 993 4.3 -21.1°
Drops below altitude 10° 21:17:56 10° 33° (NNE) 2,173 6.7 -21.5°
Sets 21:20:22 0° 27° (NNE) 3,103 7.7 -21.7°
